Regional Weather Roundup
Issued by NWS

Home | Current Version | Previous Version | Graphics & Text | Print | Product List | Glossary On
Versions: 1 2 3 4 5 6 7 8 9 10 11 12 13 14 15 16 17 18 19 20 21 22 23 24 25 26 27 28 29 30 31 32 33 34 35 36 37 38 39 40 41 42 43 44 45 46 47 48 49 50
000
ASUS43 KFSD 110102
RWRSD

WEATHER ROUNDUP FOR SOUTH DAKOTA
NATIONAL WEATHER SERVICE SIOUX FALLS SD
700 PM CST SUN DEC 10 2017

NOTE: "FAIR" INDICATES FEW OR NO CLOUDS BELOW 12,000 FEET WITH NO
SIGNIFICANT WEATHER AND/OR OBSTRUCTIONS TO VISIBILITY.


SDZ001>005-009-010-012>017-110200-
NORTHWEST AND NORTH CENTRAL SOUTH DAKOTA

CITY           SKY/WX    TMP DP  RH WIND       PRES   REMARKS
BUFFALO          N/A     47  18  31 W22       30.01F
FAITH            N/A     43  19  38 W12       30.06F
MOBRIDGE       CLOUDY    35  27  72 S3        29.99S
$$

SDZ012>016-024>037-041>051-057-063-072>074-110200-
SOUTHWEST AND SOUTH CENTRAL SOUTH DAKOTA

CITY           SKY/WX    TMP DP  RH WIND       PRES   REMARKS
RAPID CTY ARPT CLOUDY    50   6  16 NW13      30.13F
PIERRE         CLEAR     49  20  31 W12       30.02F
CUSTER         CLOUDY    43   5  20 W14       30.21S
ELLSWORTH AFB  CLOUDY    55   3  12 NW25G32   30.11F
PHILIP         CLOUDY    42  14  32 NW9       30.09F
PINE RIDGE     CLEAR     39  19  44 W5        30.17F
SPEARFISH      FAIR      52   9  17 W18G26    30.17F
WINNER         FAIR      46  17  31 SW7       30.08S
$$

SDZ004>011-016>023-039-040-110200-
NORTHEAST SOUTH DAKOTA

CITY           SKY/WX    TMP DP  RH WIND       PRES   REMARKS
ABERDEEN       CLOUDY    32  26  78 SW3       29.99F
WATERTOWN      PTCLDY    32  29  88 S5        29.97F WCI  27
BROOKINGS      CLOUDY    34  28  79 SW6       30.02F WCI  29
SISSETON         N/A     33  25  72 SE7       29.96F WCI  27
$$

SDZ017-020-022-023-036>040-048>070-110200-
SOUTHEAST SOUTH DAKOTA

CITY           SKY/WX    TMP DP  RH WIND       PRES   REMARKS
SIOUX FALLS    CLOUDY    35  28  75 SW3       30.05F
HURON          CLOUDY    37  28  70 SW6       30.02F
CHAMBERLAIN    CLOUDY    37  24  61 SW3       30.06S
MITCHELL       PTCLDY    38  29  70 SW7       30.05F
YANKTON        CLEAR     36  24  62 CALM      30.08F
$$

ABBREVIATIONS USED IN REMARKS
   TC - TEMPERATURE IN CELSIUS
  WCI - WIND CHILL INDEX
   HX - HEAT INDEX
  VSB - VISIBILITY





USA.gov is the U.S. government's official web portal to all federal, state and local government web resources and services.